Time,TemperatureF,DewpointF,PressureIn,WindDirection,WindDirectionDegrees,WindSpeedMPH,WindSpeedGustMPH,Humidity,HourlyPrecipIn,Conditions,Clouds,dailyrainin,SoftwareType,DateUTC
2013-05-13 00:00:00,55.6,31.7,23.47,West,270,0.4,0.4,40,0.00,,,0.00,WUHU216HW,2013-05-13 06:00:00,
2013-05-13 00:05:00,55.6,31.7,23.47,West,270,0.4,0.4,40,0.00,,,0.00,WUHU216HW,2013-05-13 06:05:00,
2013-05-13 00:30:00,55.4,32.0,23.46,West,270,1.6,1.6,41,0.00,,,0.00,WUHU216HW,2013-05-13 06:30:00,
2013-05-13 00:35:00,55.4,32.0,23.46,West,270,1.6,1.6,41,0.00,,,0.00,WUHU216HW,2013-05-13 06:35:00,
2013-05-13 01:00:00,54.4,31.7,23.47,WSW,248,0.7,0.7,42,0.00,,,0.00,WUHU216HW,2013-05-13 07:00:00,
2013-05-13 01:05:00,54.4,31.7,23.47,WSW,248,0.7,0.7,42,0.00,,,0.00,WUHU216HW,2013-05-13 07:05:00,
2013-05-13 01:30:00,53.6,32.7,23.46,WSW,248,1.6,1.6,45,0.00,,,0.00,WUHU216HW,2013-05-13 07:30:00,
2013-05-13 01:35:00,53.6,32.7,23.46,WSW,248,1.6,1.6,45,0.00,,,0.00,WUHU216HW,2013-05-13 07:35:00,
2013-05-13 02:00:00,53.1,32.2,23.46,WSW,248,0.2,0.2,45,0.00,,,0.00,WUHU216HW,2013-05-13 08:00:00,
2013-05-13 02:05:00,53.1,32.2,23.46,WSW,248,0.2,0.2,45,0.00,,,0.00,WUHU216HW,2013-05-13 08:05:00,
2013-05-13 02:30:00,52.4,31.5,23.46,WSW,248,0.7,0.7,45,0.00,,,0.00,WUHU216HW,2013-05-13 08:30:00,
2013-05-13 02:35:00,52.4,31.5,23.46,WSW,248,0.7,0.7,45,0.00,,,0.00,WUHU216HW,2013-05-13 08:35:00,
2013-05-13 03:00:00,51.8,32.1,23.46,SW,225,1.1,1.1,47,0.00,,,0.00,WUHU216HW,2013-05-13 09:00:00,
2013-05-13 03:05:00,51.8,32.1,23.46,SW,225,1.1,1.1,47,0.00,,,0.00,WUHU216HW,2013-05-13 09:05:00,
2013-05-13 03:30:00,51.3,32.2,23.46,WSW,248,1.1,1.1,48,0.00,,,0.00,WUHU216HW,2013-05-13 09:30:00,
2013-05-13 03:35:00,51.3,32.2,23.46,WSW,248,1.1,1.1,48,0.00,,,0.00,WUHU216HW,2013-05-13 09:35:00,
2013-05-13 04:00:00,51.1,31.5,23.45,WSW,248,0.0,0.0,47,0.00,,,0.00,WUHU216HW,2013-05-13 10:00:00,
2013-05-13 04:05:00,51.1,31.5,23.45,WSW,248,0.0,0.0,47,0.00,,,0.00,WUHU216HW,2013-05-13 10:05:00,
2013-05-13 04:30:00,50.0,31.2,23.45,WSW,248,0.0,0.0,48,0.00,,,0.00,WUHU216HW,2013-05-13 10:30:00,
2013-05-13 04:35:00,50.0,31.2,23.45,WSW,248,0.0,0.0,48,0.00,,,0.00,WUHU216HW,2013-05-13 10:35:00,
2013-05-13 05:00:00,49.9,32.0,23.45,West,270,0.2,0.2,50,0.00,,,0.00,WUHU216HW,2013-05-13 11:00:00,
2013-05-13 05:05:00,49.9,32.0,23.45,West,270,0.2,0.2,50,0.00,,,0.00,WUHU216HW,2013-05-13 11:05:00,
2013-05-13 05:10:00,49.9,32.0,23.45,West,270,0.2,0.2,50,0.00,,,0.00,WUHU216HW,2013-05-13 11:10:00,
2013-05-13 05:30:00,50.0,31.7,23.45,WSW,248,0.0,0.0,49,0.00,,,0.00,WUHU216HW,2013-05-13 11:30:00,
2013-05-13 05:35:00,50.0,31.7,23.45,WSW,248,0.0,0.0,49,0.00,,,0.00,WUHU216HW,2013-05-13 11:35:00,
2013-05-13 06:00:00,49.7,31.9,23.45,SW,225,1.1,1.1,50,0.00,,,0.00,WUHU216HW,2013-05-13 12:00:00,
2013-05-13 06:05:00,49.7,31.9,23.45,SW,225,1.1,1.1,50,0.00,,,0.00,WUHU216HW,2013-05-13 12:05:00,
2013-05-13 06:10:00,49.7,31.9,23.45,SW,225,1.1,1.1,50,0.00,,,0.00,WUHU216HW,2013-05-13 12:10:00,
2013-05-13 06:30:00,48.6,31.2,23.45,SW,225,0.2,0.2,51,0.00,,,0.00,WUHU216HW,2013-05-13 12:30:00,
2013-05-13 06:35:00,48.6,31.2,23.45,SW,225,0.2,0.2,51,0.00,,,0.00,WUHU216HW,2013-05-13 12:35:00,
2013-05-13 07:00:00,49.5,32.1,23.46,SW,225,0.0,0.0,51,0.00,,,0.00,WUHU216HW,2013-05-13 13:00:00,
2013-05-13 07:05:00,49.5,32.1,23.46,SW,225,0.0,0.0,51,0.00,,,0.00,WUHU216HW,2013-05-13 13:05:00,
2013-05-13 07:10:00,49.5,32.1,23.46,SW,225,0.0,0.0,51,0.00,,,0.00,WUHU216HW,2013-05-13 13:10:00,
2013-05-13 07:30:00,51.8,33.8,23.46,SW,225,0.0,0.0,50,0.00,,,0.00,WUHU216HW,2013-05-13 13:30:00,
2013-05-13 07:35:00,51.8,33.8,23.46,SW,225,0.0,0.0,50,0.00,,,0.00,WUHU216HW,2013-05-13 13:35:00,
2013-05-13 08:00:00,57.4,35.0,23.47,East,90,1.8,1.8,43,0.00,,,0.00,WUHU216HW,2013-05-13 14:00:00,
2013-05-13 08:05:00,57.4,35.0,23.47,ENE,68,1.3,1.8,43,0.00,,,0.00,WUHU216HW,2013-05-13 14:05:00,
2013-05-13 08:10:00,57.4,35.0,23.47,ENE,68,1.3,1.3,43,0.00,,,0.00,WUHU216HW,2013-05-13 14:10:00,
2013-05-13 08:30:00,59.2,35.5,23.47,ENE,68,1.1,1.1,41,0.00,,,0.00,WUHU216HW,2013-05-13 14:30:00,
2013-05-13 08:35:00,59.2,35.5,23.47,ENE,68,1.1,1.1,41,0.00,,,0.00,WUHU216HW,2013-05-13 14:35:00,
2013-05-13 09:00:00,60.1,36.3,23.47,East,90,1.8,1.8,41,0.00,,,0.00,WUHU216HW,2013-05-13 15:00:00,
2013-05-13 09:05:00,60.1,36.3,23.47,East,90,2.0,2.0,41,0.00,,,0.00,WUHU216HW,2013-05-13 15:05:00,
2013-05-13 09:10:00,60.1,36.3,23.47,East,90,2.0,2.0,41,0.00,,,0.00,WUHU216HW,2013-05-13 15:10:00,
2013-05-13 09:30:00,63.0,36.9,23.47,NE,45,2.5,2.5,38,0.00,,,0.00,WUHU216HW,2013-05-13 15:30:00,
2013-05-13 09:35:00,63.0,36.9,23.47,NE,45,2.5,2.5,38,0.00,,,0.00,WUHU216HW,2013-05-13 15:35:00,
2013-05-13 10:00:00,64.4,37.4,23.46,East,90,2.0,2.0,37,0.00,,,0.00,WUHU216HW,2013-05-13 16:00:00,
2013-05-13 10:05:00,64.4,37.4,23.46,East,90,2.0,2.0,37,0.00,,,0.00,WUHU216HW,2013-05-13 16:05:00,
2013-05-13 10:30:00,67.3,38.5,23.46,ENE,68,1.3,1.3,35,0.00,,,0.00,WUHU216HW,2013-05-13 16:30:00,
2013-05-13 10:35:00,67.3,38.5,23.46,ENE,68,1.3,1.3,35,0.00,,,0.00,WUHU216HW,2013-05-13 16:35:00,
2013-05-13 11:00:00,68.9,37.0,23.46,NE,45,2.9,2.9,31,0.00,,,0.00,WUHU216HW,2013-05-13 17:00:00,
2013-05-13 11:05:00,68.9,37.0,23.46,NE,45,2.9,2.9,31,0.00,,,0.00,WUHU216HW,2013-05-13 17:05:00,
2013-05-13 11:30:00,70.9,37.0,23.45,NE,45,3.1,3.1,29,0.00,,,0.00,WUHU216HW,2013-05-13 17:30:00,
2013-05-13 11:35:00,70.9,37.0,23.45,NE,45,3.1,3.1,29,0.00,,,0.00,WUHU216HW,2013-05-13 17:35:00,
2013-05-13 12:00:00,73.6,35.3,23.45,East,90,1.1,1.1,25,0.00,,,0.00,WUHU216HW,2013-05-13 18:00:00,
2013-05-13 12:05:00,73.6,35.3,23.45,East,90,1.1,1.1,25,0.00,,,0.00,WUHU216HW,2013-05-13 18:05:00,
2013-05-13 12:30:00,74.7,35.2,23.45,North,0,1.6,1.6,24,0.00,,,0.00,WUHU216HW,2013-05-13 18:30:00,
2013-05-13 12:35:00,74.7,35.2,23.45,North,0,1.6,1.6,24,0.00,,,0.00,WUHU216HW,2013-05-13 18:35:00,
2013-05-13 13:00:00,74.9,35.3,23.44,ENE,68,1.8,1.8,24,0.00,,,0.00,WUHU216HW,2013-05-13 19:00:00,
2013-05-13 13:05:00,74.9,35.3,23.44,ENE,68,1.8,1.8,24,0.00,,,0.00,WUHU216HW,2013-05-13 19:05:00,
2013-05-13 13:30:00,77.8,35.7,23.44,North,0,1.1,1.1,22,0.00,,,0.00,WUHU216HW,2013-05-13 19:30:00,
2013-05-13 13:35:00,77.8,35.7,23.44,North,0,1.1,1.1,22,0.00,,,0.00,WUHU216HW,2013-05-13 19:35:00,
2013-05-13 14:00:00,77.4,35.3,23.43,NNE,23,0.4,0.4,22,0.00,,,0.00,WUHU216HW,2013-05-13 20:00:00,
2013-05-13 14:05:00,77.4,35.3,23.43,NNE,23,0.4,0.4,22,0.00,,,0.00,WUHU216HW,2013-05-13 20:05:00,
2013-05-13 14:30:00,76.7,34.8,23.42,WNW,293,5.4,5.4,22,0.00,,,0.00,WUHU216HW,2013-05-13 20:30:00,
2013-05-13 14:35:00,76.7,34.8,23.42,WNW,293,5.4,5.4,22,0.00,,,0.00,WUHU216HW,2013-05-13 20:35:00,
2013-05-13 15:00:00,76.5,33.6,23.42,SSW,203,2.5,2.5,21,0.00,,,0.00,WUHU216HW,2013-05-13 21:00:00,
2013-05-13 15:05:00,76.5,33.6,23.42,SSW,203,2.5,2.5,21,0.00,,,0.00,WUHU216HW,2013-05-13 21:05:00,
2013-05-13 15:30:00,77.2,34.1,23.40,WSW,248,1.3,1.3,21,0.00,,,0.00,WUHU216HW,2013-05-13 21:30:00,
2013-05-13 15:35:00,77.2,34.1,23.40,WSW,248,1.3,1.3,21,0.00,,,0.00,WUHU216HW,2013-05-13 21:35:00,
2013-05-13 16:00:00,76.7,33.7,23.39,North,0,1.8,1.8,21,0.00,,,0.00,WUHU216HW,2013-05-13 22:00:00,
2013-05-13 16:05:00,76.7,33.7,23.39,North,0,1.8,1.8,21,0.00,,,0.00,WUHU216HW,2013-05-13 22:05:00,
2013-05-13 16:30:00,76.3,33.4,23.39,WSW,248,2.0,2.0,21,0.00,,,0.00,WUHU216HW,2013-05-13 22:30:00,
2013-05-13 16:35:00,76.3,33.4,23.39,WSW,248,2.0,2.0,21,0.00,,,0.00,WUHU216HW,2013-05-13 22:35:00,
2013-05-13 17:00:00,77.0,34.0,23.38,West,270,3.8,3.8,21,0.00,,,0.00,WUHU216HW,2013-05-13 23:00:00,
2013-05-13 17:05:00,77.0,34.0,23.38,West,270,3.8,3.8,21,0.00,,,0.00,WUHU216HW,2013-05-13 23:05:00,
2013-05-13 17:30:00,75.6,33.8,23.37,WNW,293,3.1,3.1,22,0.00,,,0.00,WUHU216HW,2013-05-13 23:30:00,
2013-05-13 17:35:00,75.6,33.8,23.37,WNW,293,3.1,3.1,22,0.00,,,0.00,WUHU216HW,2013-05-13 23:35:00,
2013-05-13 18:00:00,74.5,32.9,23.37,WNW,293,2.0,2.0,22,0.00,,,0.00,WUHU216HW,2013-05-14 00:00:00,
2013-05-13 18:05:00,74.5,32.9,23.37,WNW,293,2.0,2.0,22,0.00,,,0.00,WUHU216HW,2013-05-14 00:05:00,
2013-05-13 18:30:00,73.8,33.4,23.36,WSW,248,0.7,0.7,23,0.00,,,0.00,WUHU216HW,2013-05-14 00:30:00,
2013-05-13 18:35:00,73.8,33.4,23.36,WSW,248,0.7,0.7,23,0.00,,,0.00,WUHU216HW,2013-05-14 00:35:00,
2013-05-13 19:00:00,72.7,32.5,23.36,SE,135,2.5,2.5,23,0.00,,,0.00,WUHU216HW,2013-05-14 01:00:00,
2013-05-13 19:05:00,72.7,32.5,23.36,West,270,4.3,4.3,23,0.00,,,0.00,WUHU216HW,2013-05-14 01:05:00,
2013-05-13 19:10:00,72.7,32.5,23.36,West,270,4.3,4.3,23,0.00,,,0.00,WUHU216HW,2013-05-14 01:10:00,
2013-05-13 19:30:00,71.6,34.6,23.35,SW,225,2.0,2.0,26,0.00,,,0.00,WUHU216HW,2013-05-14 01:30:00,
2013-05-13 19:35:00,71.6,34.6,23.35,SW,225,2.0,2.0,26,0.00,,,0.00,WUHU216HW,2013-05-14 01:35:00,
2013-05-13 20:00:00,67.3,35.7,23.35,West,270,2.5,2.5,31,0.00,,,0.00,WUHU216HW,2013-05-14 02:00:00,
2013-05-13 20:05:00,67.3,35.7,23.35,West,270,2.5,2.5,31,0.00,,,0.00,WUHU216HW,2013-05-14 02:05:00,
2013-05-13 20:10:00,67.3,35.7,23.35,West,270,2.5,2.5,31,0.00,,,0.00,WUHU216HW,2013-05-14 02:10:00,
2013-05-13 20:30:00,64.4,34.6,23.35,WSW,248,2.5,2.5,33,0.00,,,0.00,WUHU216HW,2013-05-14 02:30:00,
2013-05-13 20:35:00,64.4,34.6,23.35,WSW,248,2.5,2.5,33,0.00,,,0.00,WUHU216HW,2013-05-14 02:35:00,
2013-05-13 21:00:00,62.3,33.3,23.35,SW,225,4.0,4.0,34,0.00,,,0.00,WUHU216HW,2013-05-14 03:00:00,
2013-05-13 21:05:00,62.1,33.2,23.35,SW,225,4.0,4.0,34,0.00,,,0.00,WUHU216HW,2013-05-14 03:05:00,
2013-05-13 21:10:00,62.1,33.2,23.35,SW,225,4.0,4.0,34,0.00,,,0.00,WUHU216HW,2013-05-14 03:10:00,
2013-05-13 21:30:00,62.1,32.5,23.35,West,270,2.5,2.5,33,0.00,,,0.00,WUHU216HW,2013-05-14 03:30:00,
2013-05-13 21:35:00,62.1,32.5,23.35,West,270,2.5,2.5,33,0.00,,,0.00,WUHU216HW,2013-05-14 03:35:00,
2013-05-13 22:00:00,63.7,31.8,23.34,WSW,248,2.5,2.5,30,0.00,,,0.00,WUHU216HW,2013-05-14 04:00:00,
2013-05-13 22:01:00,63.7,31.8,23.34,WSW,248,2.5,2.5,30,0.00,,,0.00,WUHU216HW,2013-05-14 04:01:00,
2013-05-13 22:06:00,63.7,31.8,23.34,WSW,248,2.5,2.5,30,0.00,,,0.00,WUHU216HW,2013-05-14 04:06:00,
2013-05-13 22:30:00,63.5,30.6,23.34,WSW,248,4.3,4.3,29,0.00,,,0.00,WUHU216HW,2013-05-14 04:30:00,
2013-05-13 22:35:00,63.5,30.6,23.34,WSW,248,4.3,4.3,29,0.00,,,0.00,WUHU216HW,2013-05-14 04:35:00,
2013-05-13 23:00:00,65.0,31.9,23.34,West,270,0.0,0.0,29,0.00,,,0.00,WUHU216HW,2013-05-14 05:00:00,
2013-05-13 23:05:00,65.0,31.9,23.34,West,270,0.0,0.0,29,0.00,,,0.00,WUHU216HW,2013-05-14 05:05:00,
2013-05-13 23:10:00,65.0,31.9,23.34,West,270,0.0,0.0,29,0.00,,,0.00,WUHU216HW,2013-05-14 05:10:00,
2013-05-13 23:30:00,62.8,31.0,23.34,WSW,248,1.8,1.8,30,0.00,,,0.00,WUHU216HW,2013-05-14 05:30:00,
2013-05-13 23:35:00,62.8,31.0,23.34,WSW,248,1.8,1.8,30,0.00,,,0.00,WUHU216HW,2013-05-14 05:35:00,